Regional Weather Roundup
Issued by NWS

Home | Current Version | Previous Version | Graphics & Text | Print | Product List | Glossary On
Versions: 1 2 3 4 5 6 7 8 9 10 11 12 13 14 15 16 17 18 19 20 21 22 23 24 25 26 27 28 29 30 31 32 33 34 35 36 37 38 39 40 41 42 43 44 45 46 47 48 49 50
441
ASUS43 KLSX 140157
RWRMO

WEATHER SUMMARY FOR MISSOURI
NATIONAL WEATHER SERVICE SPRINGFIELD MO
800 PM CST SAT FEB 13 2016

NOTE: "FAIR" INDICATES FEW OR NO CLOUDS BELOW 12,000 FEET WITH NO
       SIGNIFICANT WEATHER AND/OR OBSTRUCTIONS TO VISIBILITY.
       CURRENT SKY AND/OR WEATHER CONDITIONS ARE NOT AVAILABLE FOR
       CHILLICOTHE AND FARMINGTON.

MOZ001>031-035>038-043-044-053-054-140300-
...NORTHERN AND WESTERN MISSOURI...

CITY           SKY/WX    TMP DP  RH WIND       PRES   REMARKS
KANSAS CTY INT CLOUDY    20   3  48 SE12      30.29S WCI   8
LEE`S SUMMIT   CLOUDY    22   2  42 E13       30.29S WCI  10
ST JOSEPH      CLOUDY    20   1  43 SE10      30.31F WCI   9
CHILLICOTHE      N/A     20   2  45 E12       30.36F WCI   8

$$
MOZ066>068-077>081-088>096-101>105-140300-
...SOUTHWEST MISSOURI...

CITY           SKY/WX    TMP DP  RH WIND       PRES   REMARKS
SPRINGFIELD    CLOUDY    33  -3  21 SE16G23   30.22F WCI  23
JOPLIN         CLOUDY    36   8  31 E12       30.19F WCI  28

$$
MOZ032>034-039>042-045>050-055>058-069>072-140300-
...CENTRAL MISSOURI...

CITY           SKY/WX    TMP DP  RH WIND       PRES   REMARKS
COLUMBIA       NOT AVBL
JEFFERSON CITY CLOUDY    22   2  42 E12       30.39F WCI  10
ROLLA          CLOUDY    22   2  42 E14       30.33F WCI   9
SEDALIA        CLOUDY    22   2  42 E15       30.33F WCI   9

$$
MOZ051-052-059>065-140300-
...EAST CENTRAL MISSOURI...

CITY           SKY/WX    TMP DP  RH WIND       PRES   REMARKS
ST LOUIS INTL  CLOUDY    23   2  40 E12       30.46F WCI  12

$$
MOZ072>076-082>087-097>100-106>115-140300-
...SOUTH CENTRAL AND SOUTHEAST MISSOURI...

CITY           SKY/WX    TMP DP  RH WIND       PRES   REMARKS
CAPE GIRARDEAU CLOUDY    26   3  37 E9        30.46F WCI  17
POPLAR BLUFF   CLOUDY    27   7  42 E9        30.45F WCI  18
WEST PLAINS    CLOUDY    26   1  34 SE8       30.35F WCI  18

$$



USA.gov is the U.S. government's official web portal to all federal, state and local government web resources and services.